Lake Greenwood Weather Center

Moon Phase Calendar



Lake Greenwood Water Level
Online Cameras

 


      

Current Conditions in Ninety Six
2/25/2024 2:48:54 PM

57°F
Feels Like 55
Clear
Humidity
39%
Pressure
30.24"
Wind
3 mph (N)
Dew Point
33°F
UV Index
2/10 (Low)
Visibility
6 mi

Hourly Forecast

Date & Time Sun, Feb 25
2:00 PM
Sun, Feb 25
3:00 PM
Sun, Feb 25
4:00 PM
Sun, Feb 25
5:00 PM
Sun, Feb 25
6:00 PM
Sun, Feb 25
7:00 PM
Sun, Feb 25
8:00 PM
Sun, Feb 25
9:00 PM
Sun, Feb 25
10:00 PM
Sun, Feb 25
11:00 PM
Mon, Feb 26
12:00 AM
Mon, Feb 26
1:00 AM
Mon, Feb 26
2:00 AM
Mon, Feb 26
3:00 AM
Mon, Feb 26
4:00 AM
Mon, Feb 26
5:00 AM
Mon, Feb 26
6:00 AM
Mon, Feb 26
7:00 AM
Mon, Feb 26
8:00 AM
Mon, Feb 26
9:00 AM
Mon, Feb 26
10:00 AM
Mon, Feb 26
11:00 AM
Mon, Feb 26
12:00 PM
Mon, Feb 26
1:00 PM
Mon, Feb 26
2:00 PM
Mon, Feb 26
3:00 PM
Mon, Feb 26
4:00 PM
Mon, Feb 26
5:00 PM
Mon, Feb 26
6:00 PM
Mon, Feb 26
7:00 PM
Mon, Feb 26
8:00 PM
Mon, Feb 26
9:00 PM
Mon, Feb 26
10:00 PM
Mon, Feb 26
11:00 PM
Tue, Feb 27
12:00 AM
Tue, Feb 27
1:00 AM
Tue, Feb 27
2:00 AM
Tue, Feb 27
3:00 AM
Tue, Feb 27
4:00 AM
Tue, Feb 27
5:00 AM
Tue, Feb 27
6:00 AM
Tue, Feb 27
7:00 AM
Tue, Feb 27
8:00 AM
Tue, Feb 27
9:00 AM
Tue, Feb 27
10:00 AM
Tue, Feb 27
11:00 AM
Tue, Feb 27
12:00 PM
Tue, Feb 27
1:00 PM
Condition
Clear

Clear

Clear

Clear

Clear

Clear

Clear

Clear

Clear

Clear

Clear

Clear

Clear

Clear

Clear

Clear

Clear

Clear

Clear

Clear

Clear

Clear

Clear

Clear

Clear

Clear

Clear

Clear

Clouds

Clouds

Clouds

Clouds

Clouds

Clouds

Clouds

Clouds

Clouds

Clouds

Clouds

Clouds

Clouds

Clouds

Clouds

Clouds

Clouds

Clouds

Clouds

Clouds
Temperature 57°F57°F57°F57°F54°F49°F46°F45°F44°F44°F43°F43°F42°F42°F41°F41°F40°F40°F43°F50°F56°F61°F64°F66°F68°F69°F69°F66°F59°F54°F53°F52°F53°F51°F51°F51°F52°F52°F52°F50°F50°F51°F53°F57°F62°F64°F65°F68°F
Feels Like 54°F55°F55°F54°F51°F48°F44°F42°F41°F40°F40°F40°F39°F38°F38°F37°F37°F37°F40°F47°F53°F58°F62°F64°F66°F67°F67°F64°F57°F53°F51°F50°F51°F49°F49°F49°F50°F51°F50°F48°F49°F50°F52°F56°F61°F63°F65°F68°F
Cloudiness 0%0%0%0%1%2%7%7%5%5%5%6%10%5%4%3%2%2%0%0%0%0%0%0%0%1%3%9%20%18%93%92%95%96%97%97%100%100%100%99%100%100%100%100%100%100%100%100%
Visibility 6 mi6 mi6 mi6 mi6 mi6 mi6 mi6 mi6 mi6 mi6 mi6 mi6 mi6 mi6 mi6 mi6 mi6 mi6 mi6 mi6 mi6 mi6 mi6 mi6 mi6 mi6 mi6 mi6 mi6 mi6 mi6 mi6 mi6 mi6 mi6 mi6 mi6 mi6 mi6 mi6 mi6 mi6 mi6 mi6 mi6 mi6 mi6 mi
Precipitation 0%0%0%0%0%0%0%0%0%0%0%0%0%0%0%0%0%0%0%0%0%0%0%0%0%0%0%0%0%0%0%0%0%0%0%0%0%0%0%0%0%0%0%0%0%0%0%0%
Humidity 37%39%37%40%48%53%57%60%63%64%64%65%66%67%67%69%69%70%67%54%47%42%39%37%34%33%37%41%57%63%65%66%64%68%68%69%68%66%68%74%76%79%80%79%74%74%76%69%
Dew Point 31°F33°F32°F33°F34°F33°F32°F32°F32°F32°F32°F31°F31°F31°F31°F31°F31°F31°F33°F34°F36°F37°F39°F39°F39°F38°F41°F42°F44°F42°F42°F41°F41°F41°F41°F41°F42°F41°F41°F42°F43°F45°F47°F50°F53°F55°F57°F57°F
Pressure 30.21"30.24"30.21"30.18"30.18"30.18"30.18"30.18"30.18"30.18"30.18"30.18"30.18"30.18"30.18"30.18"30.18"30.18"30.18"30.18"30.18"30.15"30.15"30.12"30.09"30.06"30.06"30.03"30.06"30.06"30.06"30.09"30.09"30.09"30.09"30.06"30.09"30.06"30.06"30.06"30.06"30.03"30.03"30.06"30.06"30.03"30.03"30"
Wind Speed 4 mph4.2 mph4.5 mph4.7 mph4.6 mph4.3 mph4.9 mph5.6 mph5.3 mph5.3 mph5.2 mph4.8 mph4.8 mph4.7 mph5.3 mph4.9 mph4.9 mph5 mph4.6 mph7.1 mph8 mph9.3 mph10.4 mph10.7 mph10.8 mph11.6 mph9.9 mph8.8 mph5.6 mph5.7 mph6.3 mph6.8 mph6.5 mph5.5 mph5.7 mph6.2 mph7.4 mph7.9 mph7.4 mph6 mph5.2 mph7.3 mph8.6 mph9.5 mph12 mph11.9 mph11.8 mph12.6 mph
Wind
Direction
228°
SW
232°
SW
218°
SW
210°
SSW
190°
S
187°
S
188°
S
192°
SSW
198°
SSW
205°
SSW
212°
SSW
224°
SW
229°
SW
222°
SW
219°
SW
228°
SW
219°
SW
216°
SW
210°
SSW
220°
SW
221°
SW
220°
SW
218°
SW
218°
SW
217°
SW
215°
SW
210°
SSW
205°
SSW
199°
SSW
188°
S
188°
S
192°
SSW
198°
SSW
202°
SSW
197°
SSW
186°
S
194°
SSW
192°
SSW
206°
SSW
195°
SSW
219°
SW
178°
S
191°
S
208°
SSW
214°
SW
211°
SSW
214°
SW
220°
SW

Daily Forecast

Date High Low Precip. Humidity
Today
Feb 25

Clear
57 °F
33 °F
0%
37%
Monday
Feb 26

Clear
69 °F
40 °F
0%
39%
Tuesday
Feb 27

Clouds
69 °F
50 °F
36%
76%
Wednesday
Feb 28

Rain
68 °F
53 °F
71%
75%
Thursday
Feb 29

Clouds
52 °F
40 °F
67%
37%
Friday
Mar 1

Rain
42 °F
39 °F
100%
94%
Saturday
Mar 2

Clouds
60 °F
39 °F
0%
66%
Sunday
Mar 3

Rain
57 °F
49 °F
20%
70%
Monday
Mar 4

Clouds
62 °F
50 °F
0%
54%
Tuesday
Mar 5

Rain
59 °F
47 °F
100%
98%
Wednesday
Mar 6

Rain
63 °F
40 °F
100%
44%
Thursday
Mar 7

Clouds
61 °F
44 °F
0%
55%
Friday
Mar 8

Clouds
65 °F
43 °F
4%
41%
Saturday
Mar 9

Rain
65 °F
49 °F
100%
49%
Sunday
Mar 10

Clouds
67 °F
46 °F
0%
34%
Monday
Mar 11

Clear
72 °F
47 °F
0%
38%

Temperature 8-14 Day Outlook



Precipitation 8-14 Day Outlook




Quick Links
Lake Greenwood News
Lake Greenwood Photos
Lake Greenwood Videos




About Us
Contact Us
Site Map
Search Site
Advertise With Us
   
Greenwood.USLakes.info
THE LAKE GREENWOOD WEBSITE

Copyright 2024, Lakes Online
Privacy    |    Legal